Flag for Pakistan Weather past 2 weeks in Rawalpindi, Pakistan

Now
73 °F

Thunderstorms. Partly cloudy.


Feels Like: 76 °F
Forecast: 65 / 83 °F
Wind: 12 mph from West

Location: Islamabad Airport

Current Time: Apr 19, 2015 at 1:31:22 AM

Latest Report: Apr 19, 2015 at 1:00 AM


Visibility: 2 mi

Pressure: 29.77 "Hg

Humidity: 69%

Dew point: 63 °F

Location of RawalpindiLocation

Historic Weather in Rawalpindi — Graph

°F

Rawalpindi temperature yesterday

Maximum temperature yesterday: 88 °F (at 4:00 PM)
Minimum temperature yesterday: 66 °F (at 3:00 AM)
Average temperature yesterday: 76 °F

Past Weeks' High & Low Weather Summary

 TemperatureHumidityPressure
High91 °F (Apr 12, 4:00 PM)100% (Apr 16, 4:00 AM)30.15 "Hg (Apr 16, 4:00 AM)
Low57 °F (Apr 4, 6:00 AM)30% (Apr 12, 4:00 PM)29.65 "Hg (Apr 4, 3:00 PM)
Average73 °F61%29.93 "Hg
* Reported Midnight between Apr 3 and Apr 4 — Midnight between Apr 18 and Apr 19, Rawalpindi, Weather by CustomWeather, © 2015

Note: Actual official high and low records may vary slightly from our data, if they occured in-between our weather recording intervals... More about our weather records

Advertising

Rawalpindi weather history for previous 24 hours

 ConditionsComfort  
Time TempWeatherWind HumidityBarometerVisibility
12:00 AM
Sun, Apr 19
73 °FThundershowers. Partly cloudy.7 mph69%29.77 "Hg2 mi
11:00 PM
Sat, Apr 18
73 °FPartly cloudy.7 mph69%29.77 "Hg2 mi
10:00 PM75 °FPassing clouds.7 mph69%29.77 "Hg2 mi
9:00 PM77 °FPartly cloudy.5 mph69%29.77 "Hg2 mi
8:00 PM81 °FPartly cloudy.7 mph54%29.74 "Hg2 mi
7:00 PM81 °FPartly cloudy.7 mph62%29.71 "Hg2 mi
5:00 PM86 °FPassing clouds.7 mph43%29.71 "Hg2 mi
4:00 PM88 °FScattered clouds.9 mph40%29.71 "Hg2 mi
3:00 PM86 °FPartly sunny.12 mph38%29.71 "Hg2 mi
2:00 PM84 °FBroken clouds.12 mph43%29.74 "Hg2 mi
1:00 PM84 °FPartly sunny.14 mph43%29.74 "Hg2 mi
12:00 PM81 °FBroken clouds.9 mph42%29.77 "Hg4 mi
11:00 AM81 °FPartly sunny.5 mph42%29.77 "Hg4 mi
10:00 AM79 °FScattered clouds.5 mph48%29.77 "Hg4 mi
9:00 AM75 °FBroken clouds.5 mph54%29.77 "Hg4 mi
8:00 AM72 °FPartly sunny.5 mph61%29.77 "Hg4 mi
7:00 AM68 °FScattered clouds.No wind73%29.77 "Hg4 mi
6:00 AM66 °FScattered clouds.5 mph73%29.74 "Hg4 mi
4:00 AM66 °FPassing clouds.5 mph73%29.74 "Hg4 mi
3:00 AM66 °FPassing clouds.12 mph73%29.74 "Hg4 mi
2:00 AM68 °FPassing clouds.12 mph78%29.77 "Hg4 mi
1:00 AM68 °FPassing clouds.9 mph78%29.80 "Hg4 mi
Weather by CustomWeather, © 2015

See weather overviewHow to use our weather pages